PUA2603 SAAR-SUMU

Flight info

Callsign PUA2603
Flight time 0h 46m
Altitude 35000
Route TINTA2G TINTA DCT GUA UL417 CRR
Aircraft A20N/M-SDE2E3FGHIRWXY/LB1

Departure

Time 2026-04-25 22:05
Airport Rosario Islas Malvinas International Airport (SAAR)

Arrival

Time 2026-04-25 22:51
Airport Carrasco General Cesáreo L. Berisso International Airport (SUMU)
Time Latitude Longitude Altitude Speed Heading
2026-04-25 21:35 -32.91624 -60.78115 87 ft 0 kts 111°
2026-04-25 21:54 -32.91620 -60.78128 87 ft 2 kts 111°
2026-04-25 21:54 -32.91614 -60.78145 87 ft 2 kts 111°
2026-04-25 21:54 -32.91609 -60.78162 87 ft 2 kts 111°
2026-04-25 21:55 -32.91604 -60.78178 87 ft 2 kts 111°
2026-04-25 21:55 -32.91598 -60.78195 88 ft 2 kts 111°
2026-04-25 21:55 -32.91593 -60.78210 88 ft 0 kts 111°
2026-04-25 21:55 -32.91590 -60.78222 88 ft 2 kts 82°
2026-04-25 21:56 -32.91597 -60.78238 89 ft 2 kts 37°
2026-04-25 21:56 -32.91600 -60.78241 88 ft 0 kts 24°
2026-04-25 21:56 -32.91608 -60.78244 88 ft 0 kts 20°
2026-04-25 21:58 -32.91592 -60.78237 88 ft 4 kts 20°
2026-04-25 21:58 -32.91540 -60.78214 88 ft 10 kts 20°
2026-04-25 21:58 -32.91460 -60.78180 87 ft 12 kts 21°
2026-04-25 21:59 -32.91380 -60.78199 88 ft 12 kts 321°
2026-04-25 21:59 -32.91310 -60.78265 89 ft 12 kts 322°
2026-04-25 21:59 -32.91242 -60.78330 90 ft 12 kts 321°
2026-04-25 22:00 -32.91106 -60.78456 93 ft 12 kts 323°
2026-04-25 22:00 -32.91033 -60.78509 94 ft 12 kts 334°
2026-04-25 22:00 -32.90952 -60.78550 95 ft 13 kts 338°
2026-04-25 22:00 -32.90859 -60.78575 95 ft 14 kts 360°
2026-04-25 22:01 -32.90743 -60.78556 95 ft 18 kts 10°
2026-04-25 22:01 -32.90602 -60.78525 94 ft 22 kts 10°
2026-04-25 22:01 -32.90445 -60.78490 94 ft 22 kts 12°
2026-04-25 22:01 -32.90344 -60.78466 94 ft 22 kts 12°
2026-04-25 22:02 -32.90145 -60.78413 93 ft 21 kts 11°
2026-04-25 22:02 -32.89982 -60.78377 90 ft 25 kts 11°
2026-04-25 22:02 -32.89791 -60.78337 90 ft 29 kts
2026-04-25 22:02 -32.89595 -60.78294 88 ft 28 kts 11°
2026-04-25 22:03 -32.89402 -60.78248 87 ft 27 kts 13°
2026-04-25 22:03 -32.89220 -60.78205 87 ft 25 kts 11°
2026-04-25 22:03 -32.89086 -60.78136 87 ft 17 kts 30°
2026-04-25 22:03 -32.89049 -60.78172 87 ft 7 kts 196°
2026-04-25 22:04 -32.89058 -60.78175 87 ft 1 kts 192°
2026-04-25 22:04 -32.89085 -60.78181 87 ft 11 kts 190°
2026-04-25 22:04 -32.89433 -60.78256 87 ft 92 kts 190°
2026-04-25 22:04 -32.90299 -60.78449 95 ft 160 kts 189°
2026-04-25 22:05 -32.91496 -60.78702 543 ft 180 kts 189°
2026-04-25 22:05 -32.92693 -60.78968 1476 ft 176 kts 189°
2026-04-25 22:05 -32.93866 -60.79236 2280 ft 172 kts 190°
2026-04-25 22:05 -32.95111 -60.79520 2748 ft 191 kts 190°
2026-04-25 22:06 -32.96489 -60.79835 3257 ft 213 kts 190°
2026-04-25 22:06 -32.98008 -60.80181 3842 ft 230 kts 191°
2026-04-25 22:06 -32.99601 -60.80544 4685 ft 236 kts 191°
2026-04-25 22:06 -33.01240 -60.80712 5534 ft 241 kts 170°
2026-04-25 22:07 -33.02752 -60.79869 6377 ft 246 kts 137°
2026-04-25 22:07 -33.03451 -60.78815 6928 ft 248 kts 116°
2026-04-25 22:07 -33.03731 -60.76132 8004 ft 253 kts 77°
2026-04-25 22:07 -33.03280 -60.74104 8794 ft 259 kts 73°
2026-04-25 22:08 -33.02780 -60.71961 9339 ft 276 kts 74°
2026-04-25 22:08 -33.02275 -60.69697 9829 ft 294 kts 75°
2026-04-25 22:08 -33.01670 -60.67286 10303 ft 312 kts 70°
2026-04-25 22:08 -33.00926 -60.64783 10756 ft 330 kts 69°
2026-04-25 22:09 -33.00122 -60.62138 11250 ft 346 kts 69°
2026-04-25 22:09 -32.99286 -60.59389 11964 ft 353 kts 69°
2026-04-25 22:09 -32.98454 -60.56645 12717 ft 358 kts 69°
2026-04-25 22:09 -32.97586 -60.53781 13160 ft 374 kts 69°
2026-04-25 22:10 -32.96690 -60.50827 13558 ft 389 kts 69°
2026-04-25 22:10 -32.95765 -60.47774 14188 ft 395 kts 69°
2026-04-25 22:10 -32.94822 -60.44660 14874 ft 400 kts 69°
2026-04-25 22:10 -32.93884 -60.41568 15619 ft 403 kts 69°
2026-04-25 22:11 -32.93149 -60.38361 16586 ft 406 kts 78°
2026-04-25 22:11 -32.92860 -60.34962 17554 ft 407 kts 89°
2026-04-25 22:11 -32.92962 -60.31620 18392 ft 410 kts 94°
2026-04-25 22:11 -32.93186 -60.28217 19138 ft 414 kts 94°
2026-04-25 22:12 -32.93420 -60.24787 19894 ft 415 kts 94°
2026-04-25 22:12 -32.93630 -60.21339 20467 ft 421 kts 93°
2026-04-25 22:12 -32.93825 -60.17790 20583 ft 439 kts 93°
2026-04-25 22:12 -32.93954 -60.15315 20582 ft 452 kts 92°
2026-04-25 22:13 -32.94214 -60.10214 20957 ft 466 kts 92°
2026-04-25 22:13 -32.94408 -60.06368 21545 ft 468 kts 92°
2026-04-25 22:13 -32.94606 -60.02459 22073 ft 472 kts 92°
2026-04-25 22:13 -32.94805 -59.98514 22560 ft 478 kts 92°
2026-04-25 22:14 -32.95002 -59.94585 23071 ft 483 kts 92°
2026-04-25 22:14 -32.95204 -59.90525 23573 ft 489 kts 92°
2026-04-25 22:14 -32.95410 -59.86420 24069 ft 494 kts 92°
2026-04-25 22:14 -32.95611 -59.82335 24553 ft 498 kts 92°
2026-04-25 22:15 -32.95812 -59.78204 25055 ft 502 kts 92°
2026-04-25 22:15 -32.96010 -59.74078 25550 ft 505 kts 92°
2026-04-25 22:15 -32.96215 -59.69862 26208 ft 502 kts 92°
2026-04-25 22:16 -32.96616 -59.62216 29558 ft 438 kts 92°
2026-04-25 22:16 -32.96815 -59.58549 30026 ft 439 kts 92°
2026-04-25 22:16 -32.96980 -59.54813 30066 ft 454 kts 92°
2026-04-25 22:16 -32.97136 -59.51010 30141 ft 466 kts 92°
2026-04-25 22:17 -32.97303 -59.47084 30317 ft 476 kts 92°
2026-04-25 22:17 -32.97479 -59.43066 30483 ft 485 kts 92°
2026-04-25 22:17 -32.97660 -59.39025 30649 ft 494 kts 92°
2026-04-25 22:17 -32.97850 -59.34840 30808 ft 503 kts 92°
2026-04-25 22:18 -32.98046 -59.30579 30908 ft 512 kts 91°
2026-04-25 22:18 -32.98238 -59.26280 30907 ft 523 kts 91°
2026-04-25 22:18 -32.98436 -59.21832 30915 ft 534 kts 92°
2026-04-25 22:19 -32.98829 -59.12854 30922 ft 537 kts 91°
2026-04-25 22:19 -32.99217 -59.03941 30925 ft 538 kts 91°
2026-04-25 22:20 -32.99595 -58.95010 30936 ft 538 kts 91°
2026-04-25 22:20 -32.99970 -58.86076 30934 ft 538 kts 91°
2026-04-25 22:21 -33.00335 -58.77193 30938 ft 538 kts 91°
2026-04-25 22:21 -33.00848 -58.68359 30930 ft 539 kts 99°
2026-04-25 22:22 -33.02945 -58.60029 30925 ft 534 kts 119°
2026-04-25 22:22 -33.06983 -58.52672 30931 ft 521 kts 138°
2026-04-25 22:23 -33.11826 -58.46241 30942 ft 519 kts 140°
2026-04-25 22:23 -33.16633 -58.39851 30931 ft 519 kts 139°
2026-04-25 22:24 -33.21389 -58.33352 30927 ft 520 kts 137°
2026-04-25 22:24 -33.26156 -58.26779 30940 ft 521 kts 137°
2026-04-25 22:25 -33.30888 -58.20236 30946 ft 521 kts 137°
2026-04-25 22:25 -33.35623 -58.13675 30939 ft 521 kts 137°
2026-04-25 22:26 -33.40358 -58.07101 30942 ft 521 kts 137°
2026-04-25 22:26 -33.45061 -58.00567 30937 ft 520 kts 137°
2026-04-25 22:27 -33.49813 -57.93950 30944 ft 521 kts 137°
2026-04-25 22:27 -33.54532 -57.87359 30939 ft 521 kts 137°
2026-04-25 22:28 -33.59240 -57.80754 30938 ft 520 kts 137°
2026-04-25 22:28 -33.63910 -57.74182 30698 ft 511 kts 137°
2026-04-25 22:28 -33.66211 -57.70943 30443 ft 509 kts 137°
2026-04-25 22:29 -33.68079 -57.68316 30138 ft 510 kts 137°
2026-04-25 22:29 -33.70388 -57.65070 29609 ft 510 kts 137°
2026-04-25 22:29 -33.72665 -57.61864 29001 ft 511 kts 136°
2026-04-25 22:30 -33.77261 -57.55376 27786 ft 510 kts 136°
2026-04-25 22:30 -33.79557 -57.52128 27278 ft 505 kts 135°
2026-04-25 22:30 -33.81811 -57.48930 26864 ft 499 kts 135°
2026-04-25 22:30 -33.83291 -57.46829 26588 ft 495 kts 135°
2026-04-25 22:31 -33.86236 -57.42649 26022 ft 487 kts 135°
2026-04-25 22:31 -33.88398 -57.39578 25595 ft 482 kts 135°
2026-04-25 22:31 -33.90583 -57.36477 25159 ft 477 kts 135°
2026-04-25 22:31 -33.92699 -57.33478 24737 ft 472 kts 134°
2026-04-25 22:32 -33.94858 -57.30420 24269 ft 467 kts 134°
2026-04-25 22:32 -33.96956 -57.27443 23847 ft 462 kts 134°
2026-04-25 22:32 -33.99007 -57.24530 23408 ft 458 kts 134°
2026-04-25 22:32 -34.01070 -57.21595 22965 ft 453 kts 134°
2026-04-25 22:33 -34.03092 -57.18716 22527 ft 448 kts 134°
2026-04-25 22:33 -34.05096 -57.15861 22091 ft 444 kts 134°
2026-04-25 22:33 -34.07133 -57.12957 21647 ft 439 kts 134°
2026-04-25 22:33 -34.09122 -57.10117 21218 ft 435 kts 134°
2026-04-25 22:34 -34.11088 -57.07309 20802 ft 430 kts 134°
2026-04-25 22:34 -34.13066 -57.04483 20390 ft 424 kts 133°
2026-04-25 22:34 -34.14973 -57.01756 19986 ft 418 kts 133°
2026-04-25 22:34 -34.16827 -56.99100 19582 ft 413 kts 133°
2026-04-25 22:35 -34.18677 -56.96448 19158 ft 408 kts 133°
2026-04-25 22:35 -34.20494 -56.93843 18731 ft 404 kts 133°
2026-04-25 22:35 -34.22301 -56.91251 18303 ft 400 kts 133°
2026-04-25 22:35 -34.24090 -56.88681 17870 ft 397 kts 133°
2026-04-25 22:36 -34.25855 -56.86143 17428 ft 393 kts 133°
2026-04-25 22:36 -34.27617 -56.83608 16974 ft 390 kts 133°
2026-04-25 22:36 -34.29361 -56.81094 16515 ft 387 kts 133°
2026-04-25 22:36 -34.31073 -56.78623 16069 ft 384 kts 133°
2026-04-25 22:37 -34.32775 -56.76167 15627 ft 381 kts 133°
2026-04-25 22:37 -34.34471 -56.73717 15229 ft 378 kts 133°
2026-04-25 22:37 -34.36163 -56.71270 14824 ft 375 kts 133°
2026-04-25 22:37 -34.37823 -56.68868 14422 ft 373 kts 133°
2026-04-25 22:38 -34.39482 -56.66444 14019 ft 371 kts 130°
2026-04-25 22:38 -34.40783 -56.63754 13418 ft 375 kts 115°
2026-04-25 22:38 -34.41754 -56.60791 12723 ft 378 kts 111°
2026-04-25 22:38 -34.42648 -56.57840 12270 ft 366 kts 111°
2026-04-25 22:39 -34.43528 -56.55008 11884 ft 354 kts 112°
2026-04-25 22:39 -34.44424 -56.52231 11486 ft 346 kts 113°
2026-04-25 22:39 -34.45325 -56.49513 11096 ft 339 kts 113°
2026-04-25 22:39 -34.46217 -56.46873 10725 ft 333 kts 114°
2026-04-25 22:40 -34.47088 -56.44312 10384 ft 330 kts 114°
2026-04-25 22:40 -34.47964 -56.41744 10233 ft 316 kts 114°
2026-04-25 22:40 -34.48777 -56.39365 10115 ft 303 kts 114°
2026-04-25 22:40 -34.49592 -56.36985 9764 ft 301 kts 114°
2026-04-25 22:41 -34.50405 -56.34611 9333 ft 301 kts 113°
2026-04-25 22:41 -34.51213 -56.32251 8972 ft 298 kts 113°
2026-04-25 22:41 -34.52002 -56.29943 8617 ft 295 kts 113°
2026-04-25 22:41 -34.52787 -56.27644 8258 ft 293 kts 114°
2026-04-25 22:42 -34.53566 -56.25361 7886 ft 291 kts 114°
2026-04-25 22:42 -34.54335 -56.23107 7516 ft 288 kts 114°
2026-04-25 22:42 -34.55091 -56.20887 7149 ft 286 kts 114°
2026-04-25 22:42 -34.55856 -56.18641 6777 ft 284 kts 114°
2026-04-25 22:43 -34.56608 -56.16434 6429 ft 281 kts 114°
2026-04-25 22:43 -34.57343 -56.14273 6098 ft 278 kts 114°
2026-04-25 22:43 -34.58089 -56.12082 5728 ft 276 kts 114°
2026-04-25 22:43 -34.58814 -56.09952 5358 ft 275 kts 114°
2026-04-25 22:44 -34.59542 -56.07809 5143 ft 273 kts 113°
2026-04-25 22:44 -34.60262 -56.05688 5013 ft 274 kts 113°
2026-04-25 22:44 -34.60990 -56.03537 4863 ft 273 kts 113°
2026-04-25 22:44 -34.61717 -56.01390 4696 ft 273 kts 113°
2026-04-25 22:45 -34.62444 -55.99243 4506 ft 272 kts 113°
2026-04-25 22:45 -34.63164 -55.97116 4241 ft 271 kts 113°
2026-04-25 22:45 -34.63887 -55.94976 3936 ft 270 kts 112°
2026-04-25 22:45 -34.64663 -55.92902 3607 ft 268 kts 122°
2026-04-25 22:46 -34.65900 -55.91188 3269 ft 265 kts 141°
2026-04-25 22:46 -34.67370 -55.89840 3068 ft 257 kts 144°
2026-04-25 22:46 -34.68790 -55.88609 2993 ft 244 kts 145°
2026-04-25 22:46 -34.70155 -55.87417 2986 ft 228 kts 144°
2026-04-25 22:47 -34.71464 -55.86436 2966 ft 215 kts 164°
2026-04-25 22:47 -34.72903 -55.86402 2957 ft 200 kts 201°
2026-04-25 22:47 -34.74072 -55.87281 2885 ft 196 kts 224°
2026-04-25 22:47 -34.74971 -55.88489 2691 ft 187 kts 232°
2026-04-25 22:48 -34.75742 -55.89728 2414 ft 184 kts 234°
2026-04-25 22:48 -34.76488 -55.90981 2140 ft 176 kts 235°
2026-04-25 22:48 -34.77171 -55.92123 1908 ft 159 kts 234°
2026-04-25 22:48 -34.77795 -55.93153 1682 ft 144 kts 234°
2026-04-25 22:49 -34.78370 -55.94100 1490 ft 138 kts 234°
2026-04-25 22:49 -34.78945 -55.95045 1329 ft 138 kts 234°
2026-04-25 22:49 -34.79516 -55.95983 1163 ft 138 kts 234°
2026-04-25 22:49 -34.80089 -55.96923 988 ft 138 kts 234°
2026-04-25 22:50 -34.80660 -55.97862 808 ft 137 kts 234°
2026-04-25 22:50 -34.81230 -55.98799 623 ft 137 kts 234°
2026-04-25 22:50 -34.81795 -55.99727 438 ft 137 kts 233°
2026-04-25 22:50 -34.82371 -56.00672 256 ft 138 kts 233°
2026-04-25 22:51 -34.82936 -56.01608 92 ft 134 kts 233°
2026-04-25 22:51 -34.83396 -56.02351 78 ft 83 kts 232°
2026-04-25 22:51 -34.83643 -56.02758 71 ft 40 kts 234°
2026-04-25 22:51 -34.83780 -56.02850 66 ft 17 kts 178°
2026-04-25 22:52 -34.83841 -56.02847 65 ft 0 kts 178°
2026-04-25 22:53 -34.83903 -56.02836 63 ft 13 kts 161°
2026-04-25 22:53 -34.83979 -56.02761 62 ft 15 kts 103°
2026-04-25 22:53 -34.83952 -56.02643 63 ft 13 kts 76°
2026-04-25 22:53 -34.83945 -56.02525 64 ft 14 kts 88°
2026-04-25 22:54 -34.83944 -56.02404 64 ft 14 kts 90°
2026-04-25 22:54 -34.83938 -56.02279 64 ft 14 kts 65°
2026-04-25 22:54 -34.83853 -56.02242 67 ft 13 kts
2026-04-25 22:54 -34.83770 -56.02211 70 ft 11 kts 41°
2026-04-25 22:55 -34.83715 -56.02130 73 ft 17 kts 53°
2026-04-25 22:55 -34.83643 -56.02009 75 ft 17 kts 54°
2026-04-25 22:55 -34.83607 -56.01901 76 ft 6 kts 133°
2026-04-25 22:55 -34.83640 -56.01868 75 ft 6 kts 145°
2026-04-25 22:56 -34.83653 -56.01857 75 ft 0 kts 143°